Overview Statistics Trail Chart Weather Telemetry Raw packets
 

This is the latest recevied weather packets stored in our database for station/object EA2AFZ-W. If no packets are shown the sender has not sent any weather packets the latest 10 day(s).

<< 1 2 3 4 5 6 7 >>
Time Temp. Humidity Pressure Rain* Wind** Luminosity Snow
1788486317 17.78° C 72% 1020 hPa 0 mm - - -
1788484514 17.78° C 72% 1021 hPa 0 mm - - -
1788482712 17.78° C 73% 1021 hPa 0 mm - - -
1788480910 18.33° C 72% 1021 hPa 0 mm - - -
1788479107 18.33° C 73% 1022 hPa 0 mm - - -
1788477365 18.89° C 72% 1022 hPa 0 mm - - -
1788475562 19.44° C 70% 1022 hPa 0 mm - - -
1788473760 20° C 70% 1022 hPa 0 mm - - -
1788471957 20.56° C 70% 1022 hPa 0 mm - - -
1788470155 20.56° C 72% 1022 hPa 0 mm - - -
1788468353 21.11° C 74% 1022 hPa 0 mm - - -
1788466551 21.67° C 80% 1022 hPa 0 mm - - -
1788464748 22.22° C 80% 1022 hPa 0 mm - - -
1788462946 22.78° C 78% 1022 hPa 0 mm - - -
1788461143 24.44° C 63% 1022 hPa 0 mm - - -
1788459341 25° C 57% 1021 hPa 0 mm - - -
1788457539 26.67° C 48% 1021 hPa 0 mm - - -
1788455736 27.22° C 49% 1021 hPa 0 mm - - -
1788453933 27.78° C 48% 1021 hPa 0 mm - - -
1788452131 28.33° C 47% 1021 hPa 0 mm - - -
1788450328 28.89° C 46% 1021 hPa 0 mm - - -
1788448526 29.44° C 46% 1021 hPa 0 mm - - -
1788446723 29.44° C 46% 1021 hPa 0 mm - - -
1788444921 29.44° C 46% 1021 hPa 0 mm - - -
1788443118 29.44° C 45% 1021 hPa 0 mm - - -

* Rain latest hour (hover to see other rain measurements)
** Current wind speed in m/s (hover to see current wind gust speed)